This demonstration page uses our WeatherBlox Daily Observations layout. Learn more.

Left ArrowRight Arrow

39.01783, -85.05884

Hourly Observations for December 4, 2017

Temp ( °F °C ) Dew Point ( °F °C ) Humidity (%) Winds ( mph kmh ) Pressure ( in mb ) Visibility ( mi km ) Precip ( " mm )
12:52 am 00:52 Clear 41 5 33 0.6 73 73 SSE 6 9 30.16 1021 10 16 0.00 0.00
1:52 am 01:52 Mostly Cloudy 41 5 33 0.6 73 73 SE 8 13 30.15 1021 10 16 0.00 0.00
2:52 am 02:52 Partly Cloudy 43 6.1 33 0.6 68 68 SE 9 15 30.15 1021 10 16 0.00 0.00
3:52 am 03:52 Mostly Cloudy 41 5 32 0 70 70 SSE 7 11 30.15 1021 10 16 0.00 0.00
4:52 am 04:52 Mostly Cloudy 42 5.6 32 0 68 68 SSE 6 9 30.14 1021 10 16 0.00 0.00
5:52 am 05:52 Mostly Cloudy 43 6.1 32 0 65 65 SSE 6 9 30.14 1021 10 16 0.00 0.00
6:52 am 06:52 Mostly Cloudy 41 5 33 0.6 73 73 SSE 7 11 30.15 1021 10 16 0.00 0.00
7:52 am 07:52 Mostly Cloudy 43 6.1 34 1.1 71 71 SSE 8 13 30.15 1021 10 16 0.00 0.00
8:52 am 08:52 Mostly Cloudy 44 6.7 36 2.2 73 73 SSE 9 15 30.14 1021 10 16 0.00 0.00
9:52 am 09:52 Mostly Cloudy 49 9.4 37 2.8 64 64 SSE 12 19 30.14 1021 10 16 0.00 0.00
10:52 am 10:52 Cloudy 52 11.1 39 3.9 61 61 S 12 19 30.11 1020 10 16 0.00 0.00
11:52 am 11:52 Mostly Cloudy 57 13.9 41 5 55 55 S 15 24 30.08 1019 10 16 0.00 0.00
12:52 pm 12:52 Mostly Cloudy 62 16.7 42 5.6 48 48 S 18 30 30.03 1017 10 16 0.00 0.00
1:52 pm 13:52 Cloudy 63 17.2 42 5.6 47 47 SSW 12 19 29.99 1016 10 16 0.00 0.00
2:52 pm 14:52 Cloudy 63 17.2 42 5.6 47 47 S 18 30 29.96 1014 10 16 0.00 0.00
3:52 pm 15:52 Cloudy 63 17.2 42 5.6 47 47 S 13 20 29.96 1015 10 16 0.00 0.00
4:52 pm 16:52 Cloudy 61 16.1 42 5.6 50 50 S 10 17 29.96 1015 10 16 0.00 0.00
5:52 pm 17:52 Cloudy 58 14.4 43 6.1 58 58 S 10 17 29.96 1015 10 16 0.00 0.00
6:52 pm 18:52 Cloudy 58 14.4 42 5.6 56 56 SSE 15 24 29.93 1014 10 16 0.00 0.00
7:52 pm 19:52 Cloudy 60 15.6 42 5.6 52 52 S 17 28 29.91 1013 10 16 0.00 0.00
8:52 pm 20:52 Cloudy 61 16.1 42 5.6 50 50 S 17 28 29.91 1013 10 16 0.00 0.00
9:52 pm 21:52 Cloudy with Light Rain 59 15 46 7.8 62 62 S 20 31 29.91 1013 10 16 0.00 0.03
10:52 pm 22:52 Cloudy with Light Rain 56 13.3 49 9.4 77 77 S 16 26 29.90 1013 10 16 0.06 1.52
11:52 pm 23:52 Mostly Cloudy 55 12.8 49 9.4 80 80 S 15 24 29.88 1012 10 16 0.00 0.03

Powered by AerisWeather